www.pogodaiklimat.ru

ПОГОДА в Ильичёвске

  • Прогноз погоды в Ильичёвске
  • Монитор погоды в Ильичёвске
  • Климат города

АРХИВ ПОГОДЫ в Ильичёвске

Время (UTC), дата Ветер
(напр.,м/с)
 
Видим.   Явления Облачность Т
(С)
Тd
(С)
f
(%)
Тe
(С)
Тes
(С)
Комфортность P
(гПа)
Po
(гПа)
Тmin
(С)
Tmax
(С)
R
(мм)
S
(см)
00 1.05 СЗ 2 10 км ясно +12.4 +8.4 77 +12 +12 1018.9 1019.0
12 1.05 В 1 28 км ясно +19.8 +15.1 74 +23 +39 комфорт 1020.9 1021.0
00 2.05 СВ 1 10 км ясно +12.6 +11.4 92 +13 +13 1021.3 1021.0
12 2.05 В 2 3000 м ясно +19.0 +11.4 61 +20 +34 опасность
простуды
1020.4 1020.0
00 3.05 В 3 10 км ясно +13.4 +11.1 86 +12 +12 1015.9 1016.0
18 4.05 В 4 10 км в посл. час ливневой дождь 10/10 660 м
[Cb cap]
+12.8 +10.5 86 +11 +11 1009.2 1009.0 +15.5 2
06 5.05 СВ 8 24 км слабый ливневой дождь 10/9 600 м
[Cb cap As op]
+13.3 +10.4 83 +11 +11 1011.6 1012.0 +12.0 6
00 7.05 СЗ 2 10 км ясно +9.3 +8.1 92 +8 +8 1013.1 1013.0
12 7.05 Ю 4 30 км 6/4 600 м
[Cu med, cong Ci fib]
+17.0 +11.5 70 +17 +22 1015.1 1015.0
00 8.05 штиль 0 10 км ясно +10.5 +8.6 88 +10 +10 1016.6 1017.0
12 8.05 Ю 4 29 км 8/1 600 м
[Cu med, cong Ci sp]
+16.3 +13.0 81 +16 +23 1020.6 1021.0
00 9.05 штиль 0 10 км 5/5 300 м
[St]
+10.9 +9.9 94 +10 +10 1022.3 1022.0
00 10.05 СЗ 3 10 км 3/0
[Ci fib]
+12.3 +8.6 78 +11 +11 1020.3 1020.0
12 10.05 Ю 3 28 км 8/4 600 м
[Cu med, cong Ci sp]
+19.8 +13.5 67 +22 +28 комфорт 1016.1 1016.0
00 11.05 СЗ 2 10 км ясно +12.5 +10.6 88 +12 +12 1014.9 1015.0
12 11.05 Ю 6 15 км 8/8 600 м
[Cu med, cong Ci sp]
+17.6 +14.3 81 +17 +18 1012.3 1012.0
18 11.05 Ю 3 10 км {ливн. осадки} 8/8 570 м
[Cb calv]
+15.1 +12.9 87 +14 +14 1009.8 1010.0 +20.8 0.3
00 12.05 З 2 10 км 1/0
[Ci fib]
+14.1 +11.5 84 +14 +14 1007.9 1008.0
12 12.05 Ю 6 24 км 1/1 600 м
[Cb calv]
+17.6 +15.2 86 +17 +22 1005.8 1006.0
00 13.05 Ю 2 10 км ясно +13.7 +12.9 95 +13 +13 1003.8 1004.0
12 14.05 ЮЗ 3 30 км 3/1 600 м
[Cu med, cong Ci sp]
+24.8 +14.4 52 +27 +38 жарко 1001.6 1002.0
00 15.05 ЮЗ 1 10 км {гроза} ясно +14.8 +12.1 84 +15 +15 1001.6 1002.0
00 16.05 СЗ 4 10 км ясно +12.5 +10.2 86 +11 +11 1009.3 1009.0
12 16.05 Ю 3 27 км 4/4 600 м
[Cu hum]
+18.9 +14.4 75
00 17.05 СЗ 4 10 км 9/5 600 м
[Cu hum Ac trans]
+13.6 +12.1 91 +12 +12 1010.3 1010.0
06 17.05 СЗ 3 10 км слабый ливневой дождь 10/9 570 м
[Cb cap As op]
+12.1 +10.5 90 +10 +11 1011.2 1011.0 +12.1 0.0
00 18.05 З 1 10 км ясно +9.8 +7.7 87 +9 +9 1013.8 1014.0
18 18.05 СЗ 2 10 км в посл. час ливневой дождь 8/8 630 м
[Cb cap]
+11.5 +9.3 86 +10 +10 1013.0 1013.0 +19.3 1
00 20.05 З 1 10 км ясно +10.3 +6.4 77 +10 +10 1014.6 1015.0
12 20.05 Ю 5 30 км 3/3 600 м
[Cu med, cong]
+18.4 +14.8 80 +19 +24 1016.0 1016.0
00 21.05 З 2 10 км ясно +14.5 +13.6 94 +14 +14 1016.3 1016.0
12 21.05 Ю 5 20 км 6/5 600 м
[Cb cap Ac trans]
+18.9 +15.3 80 +20 +23 1017.6 1018.0
00 22.05 СЗ 2 10 км ясно +14.5 +11.5 82 +14 +14 1017.2 1017.0
12 22.05 Ю 3 30 км 8/5 600 м
[Cb cap Ac cast]
+21.2 +11.1 52 +23 +27 комфорт 1015.8 1016.0
00 23.05 СЗ 2 10 км 5/5
[Sc]
+15.5 +12.0 80 +15 +15 1013.9 1014.0
18 23.05 штиль 0 10 км {ливн. осадки} 8/8 630 м
[Sc]
+15.9 +12.8 82 +16 +16 1012.2 1012.0 +26.1 0.8
00 24.05 штиль 0 10 км ясно +13.9 +11.9 88 +13 +13 1010.9 1011.0
12 24.05 Ю 4 28 км 6/3 600 м
[Cb cap Ac trans Cc]
+21.3 +16.7 75 +25 +30 комфорт 1007.9 1008.0
06 25.05 ЮВ 4 10 км слабый ливневой дождь 9/9 570 м
[Cb cap]
+16.1 +15.1 94 +15 +16 1002.3 1002.0 +16.0 1
00 26.05 СЗ 2 10 км ясно +15.0 +13.2 89 +15 +15 1004.6 1005.0
00 27.05 С 2 10 км 4/4 600 м
[St]
+15.5 +14.1 91 +15 +15 1010.2 1010.0
06 27.05 штиль 0 50 км ?/?
12 27.05 Ю 3 17 км 5/5 600 м
[Cu med, cong]
+22.8 +17.1 70 +28 +34 душно 1014.5 1015.0
00 28.05 З 2 10 км 3/0
[Ac trans]
+17.0 +15.3 90 +17 +17 1013.9 1014.0
18 28.05 СЗ 1 10 км {гроза, ливн. осадки} 8/8 570 м
[Cb cap]
+16.8 +15.1 90 +18 +18 1012.1 1012.0 +19.6 8
18 29.05 СЗ 2 10 км {гроза, ливн. осадки} 8/8 600 м
[Cb cap]
+20.7 +17.1 80 +25 +25 комфорт 1009.3 1009.0 +27.1 1
00 30.05 СЗ 3 10 км ясно +18.7 +16.4 86 +20 +20 1008.5 1009.0

 

Местоположение метеостанции Ильичевск (Одесская область, Украина): широта 46.40 долгота 30.70 высота над уровнем моря 52 м.

В архиве по умолчанию представлена погода в Ильичёвске за последнюю неделю. Архивные данные за месяц целиком и за предыдущие месяцы, начиная с января 2011 года, Вы можете получить, выбрав интересующий диапазон дат из раскрывающегося списка и нажав кнопку "Ввод!".

Внимание! Время в таблицах - всемирное. Для получения местного времени необходимо прибавить поправку, которая в Il`ichevsk равна 2 ч.

Ветер - указаны скорость ветра в м/с - средняя за 10 мин, порывы в срок и между сроками (в фигурных скобках) и направление, откуда дует ветер: С - северный, СВ - северо-восточный, В - восточный, ЮВ - юго-восточный, Ю - южный, ЮЗ - юго-западный, З - западный, СЗ - северо-западный.
Видимость - горизонтальная дальность видимости в метрах или километрах. При видимости от 1 до 10 км при отсутствии осадков обычно наблюдается дымка, при ухудшении видимости до 1 км и менее - туман. В сухую погоду видимость может ухудшаться дымом, пылью или мглою.
Явления - указаны атмосферные явления, наблюдавшиеся в срок или в последний час перед сроком; фигурными скобками обозначены явления, наблюдавшиеся между сроками (за 1-3 часа до срока); квадратными скобками обозначены град или гололедные отложения с указанием их диаметра в мм.
Облачность - указаны через наклонную черту общая и нижняя облачность в баллах и высота нижней границы облаков в метрах; квадратными скобками обозначены формы облаков: Ci - перистые, Cs - перисто-слоистые, Cc - перисто-кучевые, Ac - высококучевые, As - высокослоистые, Sc - слоисто-кучевые, Ns - слоисто-дождевые, Cu - кучевые, Cb - кучево-дождевые. Подробнее классификацию облаков см. в Атласе облаков (PDF).
T - Температура воздуха - температура, измеренная на высоте 2 м над землей.
Td - Температура точки росы - температура, при понижении до которой содержащийся в воздухе водяной пар достигнет насыщения.
f - Относительная влажность воздуха - влажноcть воздуха, измеренная на высоте 2 м над землей.
Te - Эффективная температура - температура, которую ощущает одетый по сезону человек в тени. Характеристика душности погоды. При расчете учитывается влияние влажности воздуха и скорости ветра на теплоощущения человека.
Tes - Эффективная температура на солнце - температура, которую ощущает человек, с поправкой на солнечный нагрев. Характеристика знойности погоды. Зависит от высоты солнца над горизонтом, облачности и скорости ветра. Ночью, в пасмурную погоду, а также при ветре 12 м/с и более поправка равна нулю.
P - Атмосферное давление - приведенное к уровню моря атмосферное давление.
Po - Атмосферное давление - измеренное на уровне метеостанции атмосферное давление.
Tmin - Минимальная температура - минимум температуры воздуха на высоте 2 м над землей.
Tmax - Максимальная температура - максимум температуры воздуха на высоте 2 м над землей.
R - Количество осадков - Количество выпавших осадков, мм. При наведении курсора мыши на число - период времени, за который выпало указанное количество осадков.
S - Снежный покров - Высота снежного покрова, см. При наведении курсора мыши на число - состояние снежного покрова и степень покрытия местности в баллах.